STARLINK-3814, 52335

Orbit data source: Space-Track

STARLINK-3814, 52335 is a payload satellite owned by SpaceX/Seattle (US) in LEO that was launched on Fri, 29 Apr 2022 UTC via an FALCON 9 launch vehicle from the Air Force Eastern Test Range (AFETR). Payload-class satellites include a variety of spacecraft equipped with specific instruments for various scientific and technological missions. These include communications satellites like Starlink; space stations such as the ISS; scientific satellites like the Hubble; Earth observation satellites from companies like Planet Labs, Umbra, and HawkEye 360; GPS; miniature CubeSats for education and research; and military/defense satellites.

Loading next visibility...
Identifier
52335, 2022-045E
Orbit
LEO
Country
Flag of USUS
Related business
Manufacturer
SpaceX/Seattle
Mission
Operational Commercial Communications
Bus & Motor
STARLINK, Unknown motor
Mass
297 kg wet, ~275 kg dry
Launch date (UTC)
2022-04-29 (4 years ago)
Launch vehicle
FALCON 9
Launch site
Air Force Eastern Test Range (AFETR)
Object type
Payload
Rocket body
Debris
Shape & HBR
Box + 1 Pan, 10.1 m
Radar Cross Section
11.087 m², Large (>1 m²)

Expand to show TLE details & history
Last TLE update: 22 hours ago

TLE from 22 hours ago
0 STARLINK-3814
1 52335U 22045E   25350.04520212  .00001522  00000-0  11373-3 0  9990
2 52335  53.2167 224.6149 0001571  81.2327 278.8843 15.08838421203015
Epoch: 2025-12-16T01:05Z
TLE epoch observation values (Epoch: 2025-12-16T01:05:05.463Z)
Latitude
-0.00001°
Longitude
123.40708°
Altitude
540.478 km
Speed
7.593 km/s
True Right ascension
14h 58m 27s
True Declination
0° 00' 00"
Sunlit
Object was in daylight at epoch
Visualization orbit readout
Latitude
Unknown
Longitude
Unknown
Altitude
Unknown
Speed
Unknown
Apparent Right ascension
Unknown
Apparent Declination
Unknown
Sunlit
N/A
Visualization observer readout
Local Sidereal Time
21:35:43
Azimuth
Unknown
Elevation
Unknown
Doppler factor
Unknown
Orbital elements
Apogee altitude
541.08 km
Perigee altitude
538.906 km
Semi-major axis
6,918.13 km
Eccentricity
0.00016
Inclination
53.2167°
RAAN
224.6149°
Arg. of periapsis
81.2327°
True anomaly
278.86651°
Mean anomaly
278.8843°
Eccentric anomaly
278.87541°
Mean motion
3.7719 °/min
Orbital period
95.44 mins
BSTAR
0.00011373
Loading maneuver chart data...
Computing Atmospheric mass density...
Loading historical data...
Loading historical data...
Loading historical data...
Loading historical data...
Loading historical data...
Loading historical data...
Loading historical data...

Documentation

Showing up to 5 results
|